Orbital Elements
Epoch 2021 May 26.0 TT = JDT 2459360.5
T 2021 June 10.26248 TT MPCW
q 2.2702109 (2000.0) P Q
n 0.17271757 Peri. 270.09661 -0.58911196 +0.76213299
a 3.1933391 Node 319.56467 -0.47199840 -0.59427403
e 0.2890793 Incl. 24.45628 -0.65586935 -0.25688846
P 5.71
From 39 observations 2016 Aug. 1-12, mean residual 0".4.
|